Location: Unspecified
(0.0000°N, 0.0000°E)
Time: 12:13:47
(UTC+00:00)

ARIANE 6 FM1 Upper Stage - Pass Details

Date: 23 February 2026
Orbit: 523 x 607 km, 62.0° (Epoch: 06 March)

Event Time Altitude Azimuth Distance (km) Brightness Sun altitude
Rises 19:26:01 0° 332° (NNW) 2,670 6.4 -17.9°
Reaches altitude 10° 19:28:11 10° 331° (NNW) 1,793 5.5 -18.4°
Maximum altitude 19:32:12 75° 245° (WSW) 571 2.7 -19.4°
Drops below altitude 10° 19:36:22 10° 160° (SSE) 1,852 5.2 -20.5°
Enters shadow 19:37:52 - 158° (SSE) 2,453 5.8 -20.8°
